Regional Weather Roundup
Issued by NWS

Home | Current Version | Previous Version | Graphics & Text | Print | Product List | Glossary On
Versions: 1 2 3 4 5 6 7 8 9 10 11 12 13 14 15 16 17 18 19 20 21 22 23 24 25 26 27 28 29 30 31 32 33 34 35 36 37 38 39 40 41 42 43 44 45 46 47 48 49 50
000
ASUS43 KMPX 301301
RWRMN
WEATHER ROUNDUP FOR MINNESOTA
NATIONAL WEATHER SERVICE TWIN CITIES/CHANHASSEN MN
800 AM CDT MON MAY 30 2016


NOTE: "FAIR" INDICATES FEW OR NO CLOUDS BELOW 12,000 FEET WITH NO
SIGNIFICANT WEATHER AND/OR OBSTRUCTIONS TO VISIBILITY. N/A MEANS
CURRENT SKY AND/OR WEATHER CONDITIONS ARE NOT AVAILABLE.

MNZ060>063-068>070-301400-
   Twin Cities Metro

CITY           SKY/WX    TMP DP  RH WIND       PRES   REMARKS
TWIN CITIES    PTSUNNY   65  58  78 SW6       30.02R
ST PAUL        SUNNY     63  60  90 SE3       30.02R
CRYSTAL        MOSUNNY   65  58  78 S3        30.00R
BLAINE         PTSUNNY   64  64 100 S5        30.01R
EDEN PRAIRIE   MOSUNNY   62  58  86 SW3       30.02R
SOUTH ST PAUL  CLOUDY    63  61  94 CALM      30.02R
LAKE ELMO      FAIR      63  63 100 CALM      30.03R
$$
MNZ001>005-007-008-013>017-022>024-027-028-301400-
   Northwest Minnesota

CITY           SKY/WX    TMP DP  RH WIND       PRES   REMARKS
BEMIDJI        SUNNY     57  49  73 CALM      29.97S
HALLOCK        SUNNY     59  54  82 S7        29.92R
ROSEAU         SUNNY     59  54  82 CALM      29.94S
WARROAD        SUNNY     57  54  88 CALM      29.95S
THIEF RVR FALL MOSUNNY   61  48  63 S3        29.96S
CROOKSTON      RAIN      57  54  88 S3        29.95S
FOSSTON        CLOUDY    61  50  67 S5        29.96F
DETROIT LAKES  SUNNY     63  54  72 SE5       29.98S
MOORHEAD       SUNNY     63  52  67 S6        29.95S
PARK RAPIDS    CLOUDY    64  51  62 W3        29.98S
MAHNOMEN       FAIR      59  52  78 CALM      29.96F
$$
MNZ006-009>011-018-025>026-301400-
   North Central Minnesota

CITY           SKY/WX    TMP DP  RH WIND       PRES   REMARKS
BAUDETTE       SUNNY     57  52  83 CALM      29.95S
FLAG ISLAND    SUNNY     57  54  88 CALM      29.95R
INTL FALLS     SUNNY     56  51  84 W5        29.96S
WASKISH        SUNNY     61  57  88 SW3       29.95S
BIG FORK       SUNNY     59  57  94 CALM      29.97S
LONGVILLE      SUNNY     57  57 100 CALM      29.98S
GRAND RAPIDS   SUNNY     63  52  67 S5        30.00R
CRANE LAKE     SUNNY     54  52  94 CALM      29.97S
ORR            SUNNY     57  52  82 CALM      29.94F
COOK           SUNNY     57  54  88 W6        29.97S
WALKER         FAIR      62  52  69 CALM      29.97F
$$
MNZ012-019>021-037-301400-
   Northeast Minnesota

CITY           SKY/WX    TMP DP  RH WIND       PRES   REMARKS
DULUTH         SUNNY     64  54  69 W13       29.98S
ELY            SUNNY     57  52  82 W6        29.96S
HIBBING        SUNNY     59  53  80 VRB5      29.97S
EVELETH        SUNNY     57  54  88 W3        29.98S
DULUTH HARBOR  SUNNY     61  55  82 SW7       29.98S
TWO HARBORS    SUNNY     66  57  72 W7        29.95S
SILVER BAY     SUNNY     64  54  68 W5        29.94S
GRAND MARAIS     N/A     44  42  93 W8        29.91S
G MARAIS ARPRT SUNNY     57  50  77 W9        29.94R
$$
MNZ029>031-032-039>041-046>048-054>057-064-301400-
   West Central Minnesota

CITY           SKY/WX    TMP DP  RH WIND       PRES   REMARKS
FERGUS FALLS   SUNNY     64  52  63 SE5       29.94S
WHEATON        SUNNY     68  55  64 S3        29.98S
MORRIS         SUNNY     64  55  72 S3        29.97F
ALEXANDRIA     SUNNY     64  53  67 SW5       30.00S
ELBOW LAKE     FAIR      62  53  72 S7        29.99R
WADENA         SUNNY     63  54  72 CALM      29.98F
GLENWOOD       MOSUNNY   63  54  72 S8        30.01R
APPLETON       MOSUNNY   66  54  63 S5        29.98S
ORTONVILLE     CLOUDY    64  52  63 CALM      29.96F
MADISON        PTSUNNY   64  54  68 CALM      29.97F
WILLMAR        FAIR      64  55  72 CALM      30.02S
$$
MNZ033>034-036-042>043-049>051-058-059-301400-
   Central Minnesota

CITY           SKY/WX    TMP DP  RH WIND       PRES   REMARKS
ST CLOUD       MOSUNNY   60  57  89 SE3       30.00R
SAUK CENTRE    PTSUNNY   58  55  88 S3        30.00R
PAYNESVILLE    CLOUDY    63  51  65 SW3       30.02R
AITKIN         CLOUDY    66  55  68 CALM      29.97F
PINE RIVER     SUNNY     59  54  82 CALM      30.01F
BRAINERD       CLOUDY    60  54  80 CALM      29.99F
STAPLES        CLOUDY    59  54  82 CALM      29.99S
LONG PRAIRIE   FAIR      61  54  77 CALM      30.00S
LITTLE FALLS   SUNNY     59  54  82 CALM      30.00S
LITCHFIELD     MOSUNNY   63  55  77 CALM      30.02S
BUFFALO        PTSUNNY   63  57  82 CALM      30.02R
MAPLE LAKE     MOSUNNY   61  61  98 CALM      30.02R
HUTCHINSON     SUNNY     64  56  75 S5        30.03S
$$
MNZ037-044-045-052-053-301400-
   East Central Minnesota

CITY           SKY/WX    TMP DP  RH WIND       PRES   REMARKS
PRINCETON        N/A     61  59  94 CALM      30.01R
MORA           SUNNY     57  57 100 CALM      30.01F
CAMBRIDGE      MOSUNNY   64  54  68 CALM      29.99S
RUSH CITY      SUNNY     60  58  92 CALM      30.01S
MOOSE LAKE     SUNNY     57  54  88 CALM      29.98S
HINCKLEY       FAIR      61  57  88 CALM      30.01R
CLOQUET        SUNNY     63  52  67 W8        29.99S
MCGREGOR       SUNNY     57  54  88 SW3       29.99F
$$
MNZ071>073-080-081-089-090-097-098-301400-
   Southwest Minnesota

CITY           SKY/WX    TMP DP  RH WIND       PRES   REMARKS
MONTEVIDEO     PTSUNNY   64  55  72 CALM      30.01S
GRANITE FALLS  CLOUDY    65  56  71 CALM      30.00F
CANBY          CLOUDY    66  57  73 CALM      29.98F
MARSHALL       CLOUDY    64  55  72 SE6       29.97F
REDWOOD FALLS  MOSUNNY   64  56  75 E3        29.99F
OLIVIA         CLOUDY    63  55  77 CALM      30.00F
PIPESTONE      MOSUNNY   63  55  77 SE9       29.99R
WINDOM         CLOUDY    66  54  63 CALM      30.00F
WORTHINGTON      N/A     61  57  87 SE7       30.02R
JACKSON        CLOUDY    63  54  72 S8        30.02R
TRACY          MOSUNNY   65  56  70 S6        30.00F
SLAYTON        CLOUDY    64  55  72 SE10      30.00F
$$
MNZ065>067-074>077-082>085-091>093-301400-
   South Central Minnesota

CITY           SKY/WX    TMP DP  RH WIND       PRES   REMARKS
MANKATO        MOSUNNY   63  54  72 S6        30.03F
NEW ULM        CLOUDY    61  55  82 CALM      30.01F
FAIRMONT       CLOUDY    63  52  67 NE7       29.99F
GLENCOE        CLOUDY    65  59  82 S3        30.02S
FARIBAULT      CLOUDY    61  59  94 S5        30.04R
OWATONNA       PTSUNNY   63  57  82 S5        30.05S
WASECA         CLOUDY    59  54  82 CALM      30.06S
ALBERT LEA     CLOUDY    64  57  77 CALM      30.05F
$$
MNZ078>079-086>088-094>096-301400-
   Southeast Minnesota

CITY           SKY/WX    TMP DP  RH WIND       PRES   REMARKS
ROCHESTER      CLOUDY    64  59  83 SW5       30.05R
RED WING       CLOUDY    63  61  94 CALM      30.02R
STANTON        CLOUDY    60  57  89 CALM      30.03R
DODGE CENTER   MOSUNNY   64  61  88 SW6       30.05R
WINONA         MOSUNNY   59  59 100 CALM      30.04R
AUSTIN         CLOUDY    63  57  82 CALM      30.06S
PRESTON        CLOUDY    64  57  77 CALM      30.05S
$$
ABBREVIATIONS USED IN REMARKS
   TC - TEMPERATURES IN CELSIUS
  WCI - WIND CHILL INDEX
   HX - HEAT INDEX
  VSB - VISIBILITY
$$



USA.gov is the U.S. government's official web portal to all federal, state and local government web resources and services.